Location: Maiden
(35.5760°N, 81.2120°W)
Time: 20:59:09
(UTC-04:00)

Genesis I - Pass Details

Date: 14 June 2018
Orbit: 481 x 547 km, 64.5° (Epoch: 18 June)

Event Time Altitude Azimuth Distance (km) Brightness Sun altitude
Rises 21:03:40 0° 208° (SSW) 2,610 6.7 -4.6°
Reaches altitude 10° 21:05:48 10° 208° (SSW) 1,740 5.8 -5.0°
Maximum altitude 21:09:42 88° 126° (SE) 531 3.2 -5.7°
Drops below altitude 10° 21:13:44 10° 30° (NNE) 1,789 6.0 -6.3°
Sets 21:15:57 0° 30° (NNE) 2,692 6.9 -6.7°
